TimeMST,TemperatureF,Dew PointF,Humidity,Sea Level PressureIn,VisibilityMPH,Wind Direction,Wind SpeedMPH,Gust SpeedMPH,PrecipitationIn,Events,Conditions,WindDirDegrees,DateUTC
12:02 AM,21.2,19.4,93,29.46,2.0,ENE,4.6,-,N/A,,Overcast,60,2012-12-18 07:02:00
12:15 AM,21.2,19.4,93,29.46,1.5,ENE,4.6,-,N/A,,Overcast,70,2012-12-18 07:15:00
12:22 AM,21.2,21.2,100,29.47,3.0,Calm,Calm,-,N/A,,Overcast,0,2012-12-18 07:22:00
12:55 AM,21.9,21.0,96,29.55,1.8,West,5.8,-,0.00,Snow,Light Snow,260,2012-12-18 07:55:00
1:12 AM,21.2,21.2,100,29.50,1.5,West,9.2,-,0.02,Snow,Light Snow,260,2012-12-18 08:12:00
1:31 AM,23.0,21.2,93,29.49,1.8,WSW,5.8,-,0.04,Snow,Light Snow,250,2012-12-18 08:31:00
1:37 AM,23.0,21.2,93,29.49,3.0,WSW,6.9,-,0.04,Snow,Light Snow,240,2012-12-18 08:37:00
1:48 AM,23.0,21.2,93,29.49,5.0,WSW,3.5,-,0.04,Snow,Light Snow,240,2012-12-18 08:48:00
1:55 AM,23.0,21.0,92,29.55,8.0,WSW,5.8,-,0.04,,Overcast,250,2012-12-18 08:55:00
2:55 AM,24.1,21.9,91,29.57,10.0,West,9.2,-,0.00,,Overcast,260,2012-12-18 09:55:00
3:55 AM,24.1,21.9,91,29.57,10.0,West,9.2,-,N/A,,Mostly Cloudy,280,2012-12-18 10:55:00
4:55 AM,24.1,21.9,91,29.60,10.0,West,6.9,-,N/A,,Clear,270,2012-12-18 11:55:00
5:55 AM,21.0,19.0,92,29.63,10.0,WNW,5.8,-,N/A,,Clear,300,2012-12-18 12:55:00
6:55 AM,27.0,24.1,89,29.65,10.0,West,10.4,-,N/A,,Scattered Clouds,260,2012-12-18 13:55:00
7:55 AM,30.9,23.0,72,29.67,10.0,WNW,13.8,-,N/A,,Clear,300,2012-12-18 14:55:00
8:55 AM,34.0,23.0,64,29.68,10.0,WNW,13.8,-,N/A,,Clear,300,2012-12-18 15:55:00
9:55 AM,36.0,23.0,59,29.72,10.0,West,13.8,-,N/A,,Clear,270,2012-12-18 16:55:00
10:55 AM,37.9,24.1,57,29.72,10.0,West,10.4,-,N/A,,Clear,280,2012-12-18 17:55:00
11:55 AM,41.0,24.1,51,29.71,10.0,West,13.8,-,N/A,,Clear,280,2012-12-18 18:55:00
12:55 PM,41.0,19.9,43,29.70,10.0,NW,15.0,-,N/A,,Clear,310,2012-12-18 19:55:00
1:55 PM,39.9,18.0,41,29.71,10.0,NNW,12.7,-,N/A,,Scattered Clouds,330,2012-12-18 20:55:00
2:55 PM,36.0,21.0,55,29.73,10.0,NW,5.8,-,N/A,,Mostly Cloudy,310,2012-12-18 21:55:00
3:55 PM,34.0,21.0,59,29.75,10.0,WNW,4.6,-,0.00,,Mostly Cloudy,300,2012-12-18 22:55:00
4:55 PM,28.9,17.1,61,29.78,10.0,NW,9.2,-,N/A,,Clear,310,2012-12-18 23:55:00
5:13 PM,28.4,15.8,59,29.72,10.0,NW,8.1,105.9,N/A,,Squalls,310,2012-12-19 00:13:00
5:55 PM,25.0,14.0,63,29.81,10.0,WNW,3.5,-,N/A,,Clear,300,2012-12-19 00:55:00
6:55 PM,21.9,14.0,72,29.81,10.0,West,5.8,-,N/A,,Clear,280,2012-12-19 01:55:00
7:55 PM,21.9,14.0,72,29.83,10.0,West,6.9,-,N/A,,Clear,270,2012-12-19 02:55:00
8:55 PM,21.9,15.1,75,29.85,10.0,West,8.1,-,N/A,,Clear,260,2012-12-19 03:55:00
9:55 PM,24.1,16.0,71,29.84,10.0,West,5.8,-,N/A,,Clear,260,2012-12-19 04:55:00
10:55 PM,24.1,17.1,75,29.86,10.0,West,6.9,-,N/A,,Clear,260,2012-12-19 05:55:00
11:55 PM,24.1,17.1,75,29.87,10.0,West,4.6,-,N/A,,Clear,280,2012-12-19 06:55:00